Flag for Colombia Weather past 2 weeks in Santa Marta, Colombia

Now
90 °F

Passing clouds.


Feels Like: 98 °F
Forecast: 83 / 92 °F
Wind: 14 mph from Northeast

Location: Santa Marta / Simon Bolivar

Current Time: Aug 3, 2015 at 8:34:12 PM

Latest Report: Aug 3, 2015 at 7:00 PM


Visibility: N/A

Pressure: 29.70 "Hg

Humidity: 59%

Dew point: 73 °F

Location of Santa MartaLocation

Historic Weather in Santa Marta — Graph

°F

Santa Marta temperature yesterday

Maximum temperature yesterday: 97 °F (at 4:00 PM)
Minimum temperature yesterday: 81 °F (at 6:00 AM)
Average temperature yesterday: 88 °F

Past Weeks' High & Low Weather Summary

 TemperatureHumidityPressure
High99 °F (Jul 26, 3:00 PM)100% (Jul 23, 7:00 PM)29.98 "Hg (Jul 23, 7:00 PM)
Low77 °F (Jul 23, 7:00 PM)39% (Aug 3, 4:00 PM)29.69 "Hg (Aug 3, 6:00 PM)
Average87 °F68%29.82 "Hg
* Reported Jul 19 7:00 PM — Aug 3 7:00 PM, Santa Marta, Weather by CustomWeather, © 2015

Note: Actual official high and low records may vary slightly from our data, if they occured in-between our weather recording intervals... More about our weather records

Advertising

Santa Marta weather history for previous 24 hours

 ConditionsComfort  
Time TempWeatherWind HumidityBarometerVisibility
7:00 PM
Mon, Aug 3
90 °FPassing clouds.14 mph59%29.70 "HgN/A
6:00 PM91 °FPassing clouds.14 mph56%29.69 "HgN/A
5:00 PM93 °FPassing clouds.14 mph53%29.70 "HgN/A
4:00 PM99 °FPassing clouds.12 mph39%29.70 "HgN/A
3:00 PM99 °FPassing clouds.14 mph44%29.71 "HgN/A
2:00 PM91 °FPassing clouds.5 mph67%29.75 "HgN/A
1:00 PM91 °FPassing clouds.5 mph67%29.75 "HgN/A
12:00 PM91 °FPassing clouds.7 mph63%29.78 "HgN/A
11:00 AM90 °FPassing clouds.7 mph67%29.80 "HgN/A
10:00 AM88 °FPassing clouds.7 mph66%29.79 "HgN/A
9:00 AM88 °FPassing clouds.7 mph62%29.79 "HgN/A
8:00 AM84 °FPassing clouds.5 mph74%29.79 "HgN/A
7:00 AM81 °FPassing clouds.No wind84%29.77 "HgN/A
6:00 AM81 °FScattered clouds.No wind79%29.77 "HgN/A
11:00 PM
Sun, Aug 2
84 °FPassing clouds.12 mph66%29.77 "HgN/A
10:00 PM84 °FPassing clouds.9 mph66%29.77 "HgN/A
9:00 PM86 °FPassing clouds.14 mph62%29.76 "HgN/A
8:00 PM88 °FPassing clouds.16 mph55%29.76 "HgN/A
Weather by CustomWeather, © 2015

See weather overviewHow to use our weather pages